Location: Climax
(33.2048°N, 96.4497°W)
Time: 10:45:50
(UTC+00:00)

Cosmos 1805 Rocket - Pass Details

Date: 12 July 2022
Orbit: 605 x 629 km, 82.5° (Epoch: 09 August)

Event Time Altitude Azimuth Distance (km) Brightness Sun altitude
Exits shadow 08:03:01 27° 66° (ENE) 1,185 5.3 -30.7°
Drops below altitude 10° 08:05:52 10° 30° (NNE) 1,977 7.0 -30.4°
Sets 08:08:17 0° 19° (NNE) 2,882 8.2 -30.2°
